Track STARLINK-2463 now! 10-day predictions STARLINK-2463 is classified as:
1 48122U 21027AG 22177.22599535 .00000238 00000-0 34888-4 0 9996 2 48122 53.0556 108.0375 0001744 59.7251 300.3910 15.06399751 68783